N19PA KSAN-KPHX

Flight info

Callsign N19PA
Flight time 1h 28m
Altitude 13000
Route ZZOOO4 HOGGZ MOHAK ARLIN4
Aircraft DA62/L-SDFGRY/C

Departure

Time 2026-05-04 19:55
Airport San Diego International Airport (KSAN)

Arrival

Time 2026-05-04 21:24
Airport Phoenix Sky Harbor International Airport (KPHX)
Time Latitude Longitude Altitude Speed Heading
2026-05-04 19:26 32.73743 -117.18717 16 ft 0 kts 236°
2026-05-04 19:49 32.73743 -117.18718 16 ft 1 kts 249°
2026-05-04 19:49 32.73743 -117.18720 16 ft 0 kts 347°
2026-05-04 19:49 32.73764 -117.18689 17 ft 5 kts 88°
2026-05-04 19:49 32.73735 -117.18639 18 ft 11 kts 144°
2026-05-04 19:50 32.73655 -117.18573 17 ft 15 kts 146°
2026-05-04 19:50 32.73597 -117.18523 17 ft 0 kts 148°
2026-05-04 19:51 32.73553 -117.18483 17 ft 15 kts 144°
2026-05-04 19:51 32.73453 -117.18399 18 ft 20 kts 146°
2026-05-04 19:52 32.73376 -117.18404 19 ft 9 kts 189°
2026-05-04 19:52 32.73326 -117.18364 18 ft 12 kts 111°
2026-05-04 19:52 32.73293 -117.18233 17 ft 21 kts 106°
2026-05-04 19:52 32.73249 -117.18049 17 ft 26 kts 105°
2026-05-04 19:53 32.73204 -117.17862 16 ft 19 kts 103°
2026-05-04 19:53 32.73172 -117.17738 18 ft 14 kts 106°
2026-05-04 19:53 32.73148 -117.17632 17 ft 13 kts 108°
2026-05-04 19:53 32.73094 -117.17552 16 ft 12 kts 145°
2026-05-04 19:54 32.73024 -117.17542 18 ft 10 kts 227°
2026-05-04 19:54 32.73023 -117.17595 17 ft 0 kts 274°
2026-05-04 19:54 32.73029 -117.17619 16 ft 18 kts 286°
2026-05-04 19:55 32.73127 -117.18019 18 ft 78 kts 287°
2026-05-04 19:55 32.73295 -117.18725 204 ft 94 kts 287°
2026-05-04 19:55 32.73489 -117.19491 596 ft 96 kts 289°
2026-05-04 19:55 32.73745 -117.20206 1055 ft 93 kts 291°
2026-05-04 19:56 32.74068 -117.20878 1502 ft 94 kts 294°
2026-05-04 19:56 32.74302 -117.21597 1966 ft 93 kts 288°
2026-05-04 19:56 32.74539 -117.22312 2408 ft 92 kts 291°
2026-05-04 19:56 32.74802 -117.23006 2846 ft 93 kts 295°
2026-05-04 19:57 32.75152 -117.23671 3272 ft 97 kts 298°
2026-05-04 19:57 32.75471 -117.24383 3713 ft 99 kts 300°
2026-05-04 19:57 32.75750 -117.25140 4147 ft 103 kts 287°
2026-05-04 19:57 32.76011 -117.25956 4576 ft 107 kts 283°
2026-05-04 19:58 32.75991 -117.26818 5123 ft 103 kts 258°
2026-05-04 19:58 32.75790 -117.27577 5674 ft 94 kts 260°
2026-05-04 19:58 32.75616 -117.28307 6183 ft 88 kts 263°
2026-05-04 19:58 32.75226 -117.28867 6591 ft 96 kts 220°
2026-05-04 19:59 32.74582 -117.29090 7009 ft 103 kts 185°
2026-05-04 19:59 32.73905 -117.28762 7413 ft 111 kts 145°
2026-05-04 19:59 32.73500 -117.27958 7824 ft 116 kts 117°
2026-05-04 19:59 32.73146 -117.27100 8229 ft 117 kts 121°
2026-05-04 20:00 32.72785 -117.26230 8639 ft 118 kts 122°
2026-05-04 20:00 32.72658 -117.25261 9078 ft 124 kts 85°
2026-05-04 20:00 32.72675 -117.24224 9508 ft 126 kts 92°
2026-05-04 20:00 32.72697 -117.23171 9918 ft 129 kts 93°
2026-05-04 20:01 32.72717 -117.22102 10333 ft 130 kts 93°
2026-05-04 20:01 32.72738 -117.21021 10714 ft 132 kts 94°
2026-05-04 20:01 32.72758 -117.19918 11070 ft 135 kts 94°
2026-05-04 20:01 32.72780 -117.18795 11446 ft 137 kts 94°
2026-05-04 20:02 32.72801 -117.17660 11827 ft 138 kts 95°
2026-05-04 20:02 32.72824 -117.16509 12216 ft 140 kts 96°
2026-05-04 20:02 32.72846 -117.15340 12601 ft 142 kts 96°
2026-05-04 20:02 32.72868 -117.14159 12974 ft 146 kts 97°
2026-05-04 20:03 32.72884 -117.12824 13009 ft 177 kts 95°
2026-05-04 20:03 32.72913 -117.11262 13003 ft 201 kts 94°
2026-05-04 20:03 32.72951 -117.09527 13001 ft 217 kts 93°
2026-05-04 20:03 32.72989 -117.07696 12999 ft 226 kts 93°
2026-05-04 20:04 32.73024 -117.05805 12982 ft 231 kts 93°
2026-05-04 20:04 32.73059 -117.03880 12982 ft 235 kts 93°
2026-05-04 20:04 32.73094 -117.01928 12980 ft 237 kts 93°
2026-05-04 20:04 32.73129 -116.99973 12980 ft 237 kts 93°
2026-05-04 20:05 32.73163 -116.98020 12975 ft 236 kts 93°
2026-05-04 20:05 32.73197 -116.96072 12977 ft 236 kts 93°
2026-05-04 20:05 32.73230 -116.94125 12974 ft 236 kts 94°
2026-05-04 20:05 32.73264 -116.92176 12976 ft 237 kts 94°
2026-05-04 20:06 32.73297 -116.90227 12977 ft 236 kts 94°
2026-05-04 20:06 32.73330 -116.88277 12971 ft 236 kts 94°
2026-05-04 20:06 32.73362 -116.86324 12973 ft 237 kts 94°
2026-05-04 20:06 32.73394 -116.84371 12974 ft 237 kts 94°
2026-05-04 20:07 32.73429 -116.82441 12972 ft 237 kts 94°
2026-05-04 20:07 32.73457 -116.80482 12977 ft 237 kts 94°
2026-05-04 20:07 32.73488 -116.78528 12971 ft 236 kts 94°
2026-05-04 20:07 32.73520 -116.76577 12976 ft 236 kts 94°
2026-05-04 20:08 32.73551 -116.74622 12970 ft 237 kts 94°
2026-05-04 20:08 32.73582 -116.72670 12974 ft 237 kts 94°
2026-05-04 20:08 32.73611 -116.70703 12969 ft 238 kts 94°
2026-05-04 20:08 32.73642 -116.68740 12970 ft 238 kts 94°
2026-05-04 20:09 32.73672 -116.66779 12976 ft 238 kts 94°
2026-05-04 20:09 32.73701 -116.64788 12976 ft 237 kts 94°
2026-05-04 20:09 32.73731 -116.62824 12971 ft 238 kts 94°
2026-05-04 20:09 32.73758 -116.60854 12975 ft 239 kts 94°
2026-05-04 20:10 32.73787 -116.58904 12964 ft 240 kts 94°
2026-05-04 20:10 32.73817 -116.56924 12964 ft 240 kts 94°
2026-05-04 20:10 32.73845 -116.54948 12962 ft 239 kts 94°
2026-05-04 20:10 32.73872 -116.52980 12963 ft 239 kts 94°
2026-05-04 20:11 32.73899 -116.51017 12960 ft 238 kts 94°
2026-05-04 20:11 32.73927 -116.49058 12956 ft 236 kts 94°
2026-05-04 20:11 32.73953 -116.47101 12957 ft 237 kts 94°
2026-05-04 20:11 32.73979 -116.45137 12953 ft 238 kts 94°
2026-05-04 20:12 32.74004 -116.43168 12952 ft 238 kts 94°
2026-05-04 20:12 32.74032 -116.41204 12946 ft 238 kts 94°
2026-05-04 20:12 32.74057 -116.39243 12944 ft 238 kts 94°
2026-05-04 20:12 32.74082 -116.37274 12947 ft 238 kts 94°
2026-05-04 20:13 32.74107 -116.35310 12943 ft 238 kts 94°
2026-05-04 20:13 32.74132 -116.33347 12941 ft 237 kts 94°
2026-05-04 20:13 32.74156 -116.31397 12943 ft 236 kts 94°
2026-05-04 20:13 32.74179 -116.29454 12941 ft 236 kts 94°
2026-05-04 20:14 32.74203 -116.27505 12938 ft 236 kts 94°
2026-05-04 20:14 32.74226 -116.25564 12939 ft 235 kts 94°
2026-05-04 20:14 32.74249 -116.23620 12934 ft 234 kts 94°
2026-05-04 20:14 32.74272 -116.21689 12939 ft 233 kts 94°
2026-05-04 20:15 32.74301 -116.19784 12932 ft 229 kts 94°
2026-05-04 20:15 32.74313 -116.17880 12940 ft 232 kts 95°
2026-05-04 20:15 32.74332 -116.15962 12937 ft 233 kts 94°
2026-05-04 20:15 32.74356 -116.14032 12932 ft 234 kts 94°
2026-05-04 20:16 32.74378 -116.12102 12930 ft 234 kts 94°
2026-05-04 20:16 32.74399 -116.10173 12927 ft 233 kts 94°
2026-05-04 20:16 32.74418 -116.08247 12924 ft 233 kts 94°
2026-05-04 20:16 32.74438 -116.06322 12922 ft 233 kts 94°
2026-05-04 20:17 32.74458 -116.04395 12913 ft 234 kts 94°
2026-05-04 20:17 32.74478 -116.02465 12906 ft 234 kts 94°
2026-05-04 20:17 32.74496 -116.00535 12904 ft 234 kts 94°
2026-05-04 20:17 32.74516 -115.98605 12895 ft 233 kts 94°
2026-05-04 20:18 32.74534 -115.96680 12889 ft 233 kts 94°
2026-05-04 20:18 32.74552 -115.94759 12897 ft 233 kts 94°
2026-05-04 20:18 32.74569 -115.92856 12882 ft 233 kts 94°
2026-05-04 20:18 32.74587 -115.90930 12877 ft 233 kts 94°
2026-05-04 20:19 32.74605 -115.89003 12875 ft 233 kts 94°
2026-05-04 20:19 32.74622 -115.87079 12870 ft 233 kts 95°
2026-05-04 20:19 32.74639 -115.85157 12866 ft 233 kts 95°
2026-05-04 20:19 32.74655 -115.83237 12862 ft 233 kts 94°
2026-05-04 20:20 32.74671 -115.81321 12858 ft 232 kts 95°
2026-05-04 20:20 32.74687 -115.79402 12855 ft 232 kts 94°
2026-05-04 20:20 32.74702 -115.77482 12854 ft 233 kts 95°
2026-05-04 20:20 32.74718 -115.75557 12851 ft 234 kts 95°
2026-05-04 20:21 32.74732 -115.73620 12856 ft 235 kts 95°
2026-05-04 20:21 32.74747 -115.71675 12847 ft 235 kts 94°
2026-05-04 20:21 32.74776 -115.67801 12845 ft 234 kts 95°
2026-05-04 20:22 32.74790 -115.65865 12846 ft 234 kts 95°
2026-05-04 20:22 32.74804 -115.63938 12852 ft 234 kts 95°
2026-05-04 20:22 32.74817 -115.62003 12851 ft 234 kts 95°
2026-05-04 20:22 32.74828 -115.60069 12829 ft 234 kts 95°
2026-05-04 20:23 32.74836 -115.58137 12826 ft 234 kts 95°
2026-05-04 20:23 32.74857 -115.56201 12828 ft 235 kts 95°
2026-05-04 20:23 32.74869 -115.54265 12828 ft 235 kts 95°
2026-05-04 20:23 32.74875 -115.52325 12830 ft 234 kts 95°
2026-05-04 20:24 32.74898 -115.50395 12827 ft 235 kts 91°
2026-05-04 20:24 32.74972 -115.48460 12833 ft 235 kts 94°
2026-05-04 20:24 32.74997 -115.46521 12836 ft 235 kts 94°
2026-05-04 20:24 32.75037 -115.44578 12834 ft 236 kts 94°
2026-05-04 20:25 32.75087 -115.42631 12839 ft 236 kts 93°
2026-05-04 20:25 32.75138 -115.40683 12838 ft 236 kts 94°
2026-05-04 20:25 32.75184 -115.38733 12858 ft 236 kts 94°
2026-05-04 20:25 32.75229 -115.36788 12856 ft 236 kts 94°
2026-05-04 20:26 32.75277 -115.34842 12852 ft 235 kts 94°
2026-05-04 20:26 32.75321 -115.32902 12852 ft 235 kts 94°
2026-05-04 20:26 32.75366 -115.30958 12854 ft 236 kts 94°
2026-05-04 20:26 32.75411 -115.29008 12857 ft 237 kts 94°
2026-05-04 20:27 32.75458 -115.27057 12855 ft 236 kts 94°
2026-05-04 20:27 32.75501 -115.25132 12852 ft 236 kts 94°
2026-05-04 20:27 32.75546 -115.23166 12852 ft 235 kts 94°
2026-05-04 20:27 32.75590 -115.21230 12852 ft 234 kts 94°
2026-05-04 20:28 32.75632 -115.19321 12855 ft 234 kts 94°
2026-05-04 20:28 32.75675 -115.17387 12853 ft 234 kts 94°
2026-05-04 20:28 32.75718 -115.15453 12852 ft 234 kts 94°
2026-05-04 20:28 32.75761 -115.13514 12854 ft 234 kts 94°
2026-05-04 20:29 32.75803 -115.11579 12849 ft 234 kts 94°
2026-05-04 20:29 32.75844 -115.09644 12849 ft 234 kts 94°
2026-05-04 20:29 32.75886 -115.07709 12850 ft 235 kts 94°
2026-05-04 20:29 32.75928 -115.05770 12849 ft 235 kts 94°
2026-05-04 20:30 32.75969 -115.03836 12850 ft 234 kts 94°
2026-05-04 20:30 32.76009 -115.01901 12849 ft 234 kts 94°
2026-05-04 20:30 32.76049 -114.99965 12847 ft 234 kts 94°
2026-05-04 20:30 32.76090 -114.98030 12845 ft 234 kts 94°
2026-05-04 20:31 32.76116 -114.96747 12847 ft 235 kts 94°
2026-05-04 20:31 32.76156 -114.94805 12845 ft 236 kts 94°
2026-05-04 20:31 32.76195 -114.92856 12848 ft 236 kts 94°
2026-05-04 20:31 32.76235 -114.90911 12846 ft 236 kts 94°
2026-05-04 20:32 32.76273 -114.88961 12850 ft 236 kts 94°
2026-05-04 20:32 32.76312 -114.87012 12851 ft 236 kts 94°
2026-05-04 20:32 32.76351 -114.85065 12844 ft 235 kts 94°
2026-05-04 20:32 32.76389 -114.83124 12841 ft 235 kts 94°
2026-05-04 20:33 32.76426 -114.81184 12848 ft 234 kts 94°
2026-05-04 20:33 32.76463 -114.79248 12849 ft 235 kts 94°
2026-05-04 20:33 32.76501 -114.77308 12848 ft 235 kts 94°
2026-05-04 20:33 32.76537 -114.75365 12851 ft 235 kts 94°
2026-05-04 20:34 32.76573 -114.73429 12850 ft 235 kts 94°
2026-05-04 20:34 32.76610 -114.71492 12850 ft 235 kts 94°
2026-05-04 20:34 32.76645 -114.69551 12853 ft 234 kts 94°
2026-05-04 20:34 32.76680 -114.67619 12852 ft 234 kts 94°
2026-05-04 20:35 32.76715 -114.65679 12852 ft 235 kts 94°
2026-05-04 20:35 32.76750 -114.63742 12854 ft 234 kts 94°
2026-05-04 20:35 32.76784 -114.61808 12851 ft 234 kts 94°
2026-05-04 20:35 32.76819 -114.59876 12852 ft 234 kts 94°
2026-05-04 20:36 32.76847 -114.57946 12852 ft 234 kts 94°
2026-05-04 20:36 32.76873 -114.56016 12851 ft 234 kts 94°
2026-05-04 20:36 32.76901 -114.54083 12848 ft 234 kts 94°
2026-05-04 20:36 32.76928 -114.52147 12850 ft 235 kts 95°
2026-05-04 20:37 32.76955 -114.50206 12852 ft 235 kts 94°
2026-05-04 20:37 32.76984 -114.48265 12850 ft 235 kts 94°
2026-05-04 20:37 32.77010 -114.46321 12850 ft 235 kts 94°
2026-05-04 20:37 32.77037 -114.44379 12851 ft 235 kts 94°
2026-05-04 20:38 32.77063 -114.42443 12854 ft 234 kts 94°
2026-05-04 20:38 32.77088 -114.40510 12857 ft 235 kts 94°
2026-05-04 20:38 32.77112 -114.38560 12853 ft 237 kts 94°
2026-05-04 20:38 32.77139 -114.36608 12850 ft 236 kts 94°
2026-05-04 20:39 32.77163 -114.34660 12851 ft 235 kts 94°
2026-05-04 20:39 32.77189 -114.32715 12850 ft 235 kts 94°
2026-05-04 20:39 32.77213 -114.30774 12848 ft 235 kts 94°
2026-05-04 20:39 32.77237 -114.28834 12849 ft 235 kts 94°
2026-05-04 20:40 32.77259 -114.26886 12844 ft 235 kts 94°
2026-05-04 20:40 32.77283 -114.24944 12843 ft 235 kts 94°
2026-05-04 20:40 32.77306 -114.23007 12836 ft 234 kts 94°
2026-05-04 20:40 32.77330 -114.21074 12837 ft 234 kts 94°
2026-05-04 20:41 32.77351 -114.19169 12838 ft 233 kts 94°
2026-05-04 20:41 32.77373 -114.17244 12832 ft 233 kts 94°
2026-05-04 20:41 32.77395 -114.15320 12839 ft 232 kts 94°
2026-05-04 20:41 32.77417 -114.13376 12834 ft 232 kts 94°
2026-05-04 20:42 32.77437 -114.11455 12831 ft 233 kts 94°
2026-05-04 20:42 32.77458 -114.09532 12825 ft 233 kts 94°
2026-05-04 20:42 32.77479 -114.07631 12825 ft 233 kts 95°
2026-05-04 20:42 32.77498 -114.05707 12818 ft 233 kts 94°
2026-05-04 20:43 32.77518 -114.03780 12815 ft 233 kts 94°
2026-05-04 20:43 32.77539 -114.01855 12814 ft 233 kts 94°
2026-05-04 20:43 32.77558 -113.99930 12810 ft 233 kts 94°
2026-05-04 20:43 32.77576 -113.98009 12809 ft 233 kts 94°
2026-05-04 20:44 32.77738 -113.96085 12811 ft 236 kts 83°
2026-05-04 20:44 32.78030 -113.94166 12808 ft 236 kts 84°
2026-05-04 20:44 32.78302 -113.92246 12809 ft 236 kts 84°
2026-05-04 20:44 32.78576 -113.90326 12807 ft 236 kts 83°
2026-05-04 20:45 32.78854 -113.88405 12807 ft 236 kts 84°
2026-05-04 20:45 32.79131 -113.86479 12804 ft 237 kts 84°
2026-05-04 20:45 32.79408 -113.84555 12808 ft 236 kts 83°
2026-05-04 20:45 32.79683 -113.82627 12810 ft 237 kts 84°
2026-05-04 20:46 32.79959 -113.80699 12806 ft 237 kts 84°
2026-05-04 20:46 32.80236 -113.78767 12811 ft 237 kts 84°
2026-05-04 20:46 32.80513 -113.76835 12806 ft 237 kts 84°
2026-05-04 20:46 32.80786 -113.74910 12807 ft 236 kts 84°
2026-05-04 20:47 32.81060 -113.72988 12805 ft 236 kts 84°
2026-05-04 20:47 32.81335 -113.71062 12813 ft 237 kts 83°
2026-05-04 20:47 32.81610 -113.69126 12811 ft 238 kts 84°
2026-05-04 20:47 32.81885 -113.67186 12808 ft 238 kts 84°
2026-05-04 20:48 32.82161 -113.65249 12808 ft 237 kts 84°
2026-05-04 20:48 32.82434 -113.63315 12813 ft 237 kts 84°
2026-05-04 20:48 32.82708 -113.61382 12810 ft 237 kts 84°
2026-05-04 20:48 32.82981 -113.59452 12814 ft 236 kts 84°
2026-05-04 20:49 32.83253 -113.57528 12814 ft 236 kts 84°
2026-05-04 20:49 32.83523 -113.55604 12813 ft 236 kts 84°
2026-05-04 20:49 32.83795 -113.53680 12813 ft 236 kts 84°
2026-05-04 20:49 32.84065 -113.51757 12816 ft 236 kts 84°
2026-05-04 20:50 32.84335 -113.49835 12814 ft 236 kts 84°
2026-05-04 20:50 32.84605 -113.47911 12814 ft 236 kts 84°
2026-05-04 20:50 32.84875 -113.45989 12816 ft 235 kts 84°
2026-05-04 20:50 32.85144 -113.44068 12817 ft 236 kts 84°
2026-05-04 20:51 32.85414 -113.42138 12814 ft 236 kts 84°
2026-05-04 20:51 32.85683 -113.40211 12817 ft 236 kts 84°
2026-05-04 20:51 32.85952 -113.38287 12818 ft 236 kts 84°
2026-05-04 20:51 32.86220 -113.36361 12815 ft 236 kts 84°
2026-05-04 20:52 32.86489 -113.34435 12821 ft 236 kts 84°
2026-05-04 20:52 32.86756 -113.32514 12821 ft 236 kts 84°
2026-05-04 20:52 32.87023 -113.30586 12823 ft 236 kts 84°
2026-05-04 20:52 32.87290 -113.28664 12824 ft 236 kts 84°
2026-05-04 20:53 32.87553 -113.26765 12825 ft 236 kts 84°
2026-05-04 20:53 32.87821 -113.24838 12823 ft 236 kts 84°
2026-05-04 20:53 32.88087 -113.22910 12824 ft 236 kts 84°
2026-05-04 20:53 32.88353 -113.20982 12819 ft 236 kts 84°
2026-05-04 20:54 32.88620 -113.19055 12821 ft 236 kts 84°
2026-05-04 20:54 32.88884 -113.17129 12818 ft 236 kts 84°
2026-05-04 20:54 32.89149 -113.15204 12827 ft 236 kts 84°
2026-05-04 20:54 32.89414 -113.13282 12829 ft 236 kts 84°
2026-05-04 20:55 32.89678 -113.11360 12829 ft 235 kts 84°
2026-05-04 20:55 32.89941 -113.09437 12834 ft 235 kts 84°
2026-05-04 20:55 32.90204 -113.07519 12842 ft 236 kts 84°
2026-05-04 20:55 32.90468 -113.05590 12842 ft 236 kts 84°
2026-05-04 20:56 32.90731 -113.03662 12847 ft 237 kts 84°
2026-05-04 20:56 32.90996 -113.01726 12846 ft 237 kts 84°
2026-05-04 20:56 32.91259 -112.99797 12853 ft 236 kts 84°
2026-05-04 20:56 32.91521 -112.97872 12851 ft 236 kts 84°
2026-05-04 20:57 32.91783 -112.95947 12860 ft 236 kts 84°
2026-05-04 20:57 32.92045 -112.94014 12859 ft 237 kts 83°
2026-05-04 20:57 32.92310 -112.92073 12864 ft 237 kts 84°
2026-05-04 20:57 32.92571 -112.90132 12866 ft 238 kts 84°
2026-05-04 20:58 32.92834 -112.88193 12874 ft 237 kts 84°
2026-05-04 20:58 32.93097 -112.86259 12876 ft 236 kts 84°
2026-05-04 20:58 32.93357 -112.84333 12879 ft 236 kts 84°
2026-05-04 20:58 32.93616 -112.82410 12884 ft 235 kts 83°
2026-05-04 20:59 32.93875 -112.80480 12884 ft 236 kts 84°
2026-05-04 20:59 32.94135 -112.78549 12880 ft 236 kts 84°
2026-05-04 20:59 32.94395 -112.76617 12884 ft 236 kts 84°
2026-05-04 20:59 32.94654 -112.74692 12883 ft 235 kts 83°
2026-05-04 21:00 32.94912 -112.72765 12885 ft 235 kts 83°
2026-05-04 21:00 32.95397 -112.70909 12880 ft 236 kts 62°
2026-05-04 21:00 32.96354 -112.69336 12883 ft 234 kts 40°
2026-05-04 21:00 32.97647 -112.68224 12885 ft 227 kts 19°
2026-05-04 21:01 32.99111 -112.67653 12882 ft 217 kts
2026-05-04 21:01 33.00588 -112.67594 12884 ft 210 kts 348°
2026-05-04 21:01 33.02056 -112.67643 12877 ft 211 kts 349°
2026-05-04 21:01 33.03527 -112.67689 12872 ft 211 kts 349°
2026-05-04 21:02 33.04995 -112.67736 12914 ft 209 kts 349°
2026-05-04 21:02 33.06417 -112.67782 13010 ft 206 kts 348°
2026-05-04 21:02 33.07861 -112.67832 13012 ft 208 kts 348°
2026-05-04 21:02 33.09315 -112.67881 13010 ft 209 kts 349°
2026-05-04 21:03 33.10771 -112.67930 13007 ft 210 kts 349°
2026-05-04 21:03 33.12231 -112.67974 13006 ft 210 kts 349°
2026-05-04 21:03 33.13698 -112.68027 13002 ft 211 kts 349°
2026-05-04 21:03 33.15167 -112.68075 13001 ft 211 kts 349°
2026-05-04 21:04 33.16636 -112.68124 12999 ft 212 kts 349°
2026-05-04 21:04 33.18111 -112.68172 13002 ft 212 kts 349°
2026-05-04 21:04 33.19591 -112.68221 13008 ft 213 kts 349°
2026-05-04 21:04 33.21071 -112.68270 13009 ft 213 kts 349°
2026-05-04 21:05 33.22551 -112.68319 13011 ft 213 kts 349°
2026-05-04 21:05 33.24034 -112.68326 13016 ft 216 kts 357°
2026-05-04 21:05 33.25514 -112.67851 13017 ft 225 kts 17°
2026-05-04 21:05 33.26846 -112.66824 13020 ft 231 kts 39°
2026-05-04 21:06 33.27857 -112.65323 13022 ft 234 kts 60°
2026-05-04 21:06 33.28419 -112.63508 13021 ft 232 kts 82°
2026-05-04 21:06 33.28528 -112.61598 13018 ft 229 kts 93°
2026-05-04 21:06 33.28570 -112.59693 13019 ft 230 kts 92°
2026-05-04 21:07 33.28613 -112.57781 13023 ft 230 kts 92°
2026-05-04 21:07 33.28655 -112.55865 13015 ft 231 kts 92°
2026-05-04 21:07 33.28698 -112.53945 13012 ft 231 kts 92°
2026-05-04 21:07 33.28739 -112.52024 13002 ft 231 kts 92°
2026-05-04 21:08 33.28780 -112.50107 13005 ft 231 kts 92°
2026-05-04 21:08 33.28822 -112.48191 13010 ft 231 kts 92°
2026-05-04 21:08 33.28862 -112.46272 13008 ft 231 kts 92°
2026-05-04 21:08 33.28903 -112.44351 13008 ft 231 kts 92°
2026-05-04 21:09 33.28943 -112.42431 13009 ft 231 kts 92°
2026-05-04 21:09 33.28983 -112.40511 13011 ft 231 kts 92°
2026-05-04 21:09 33.29023 -112.38593 13013 ft 231 kts 92°
2026-05-04 21:09 33.29062 -112.36673 13012 ft 231 kts 92°
2026-05-04 21:10 33.29101 -112.34746 13014 ft 232 kts 92°
2026-05-04 21:10 33.29141 -112.32812 13012 ft 233 kts 92°
2026-05-04 21:10 33.29179 -112.30881 13002 ft 230 kts 93°
2026-05-04 21:10 33.29217 -112.28971 13001 ft 230 kts 93°
2026-05-04 21:11 33.29254 -112.27088 13002 ft 231 kts 92°
2026-05-04 21:11 33.29291 -112.25154 12991 ft 233 kts 92°
2026-05-04 21:11 33.29329 -112.23219 12986 ft 233 kts 92°
2026-05-04 21:11 33.29367 -112.21287 12983 ft 232 kts 92°
2026-05-04 21:12 33.29404 -112.19358 12978 ft 231 kts 92°
2026-05-04 21:12 33.29440 -112.17438 12970 ft 231 kts 92°
2026-05-04 21:12 33.29476 -112.15515 12973 ft 231 kts 92°
2026-05-04 21:12 33.29511 -112.13596 12970 ft 232 kts 92°
2026-05-04 21:13 33.29547 -112.11667 12974 ft 232 kts 92°
2026-05-04 21:13 33.29583 -112.09738 12973 ft 232 kts 92°
2026-05-04 21:13 33.29617 -112.07813 12977 ft 232 kts 92°
2026-05-04 21:13 33.29653 -112.05883 12975 ft 232 kts 92°
2026-05-04 21:14 33.29687 -112.03954 12976 ft 232 kts 92°
2026-05-04 21:14 33.29721 -112.02015 12906 ft 236 kts 92°
2026-05-04 21:14 33.29755 -112.00031 12779 ft 241 kts 92°
2026-05-04 21:14 33.29791 -111.98018 12650 ft 243 kts 92°
2026-05-04 21:15 33.29826 -111.96003 12541 ft 239 kts 92°
2026-05-04 21:15 33.29861 -111.94048 12417 ft 232 kts 92°
2026-05-04 21:15 33.29893 -111.92140 12293 ft 228 kts 92°
2026-05-04 21:15 33.29924 -111.90253 12159 ft 226 kts 92°
2026-05-04 21:16 33.30060 -111.88381 11950 ft 230 kts 74°
2026-05-04 21:16 33.30932 -111.86815 11753 ft 227 kts 34°
2026-05-04 21:16 33.32325 -111.86115 11558 ft 212 kts 356°
2026-05-04 21:16 33.33657 -111.86468 11369 ft 182 kts 317°
2026-05-04 21:17 33.34564 -111.87354 11174 ft 163 kts 313°
2026-05-04 21:17 33.35608 -111.87945 10724 ft 181 kts 339°
2026-05-04 21:17 33.37008 -111.87923 9721 ft 222 kts
2026-05-04 21:17 33.38542 -111.87394 8691 ft 224 kts 18°
2026-05-04 21:18 33.39849 -111.86638 8043 ft 199 kts 28°
2026-05-04 21:18 33.40986 -111.85757 7695 ft 188 kts 36°
2026-05-04 21:18 33.41653 -111.85143 7564 ft 177 kts 40°
2026-05-04 21:18 33.42567 -111.84261 7363 ft 163 kts 26°
2026-05-04 21:19 33.43586 -111.84216 7102 ft 142 kts 318°
2026-05-04 21:19 33.43970 -111.85182 6594 ft 128 kts 259°
2026-05-04 21:19 33.43865 -111.86315 5364 ft 149 kts 249°
2026-05-04 21:19 33.43671 -111.87488 4853 ft 134 kts 257°
2026-05-04 21:20 33.43496 -111.88539 4338 ft 124 kts 256°
2026-05-04 21:20 33.43309 -111.89496 3841 ft 115 kts 256°
2026-05-04 21:20 33.43143 -111.90417 3359 ft 112 kts 258°
2026-05-04 21:20 33.43062 -111.91298 2924 ft 99 kts 264°
2026-05-04 21:21 33.43018 -111.92075 2625 ft 85 kts 265°
2026-05-04 21:21 33.42973 -111.92699 2611 ft 73 kts 265°
2026-05-04 21:21 33.42953 -111.93377 2304 ft 85 kts 267°
2026-05-04 21:21 33.42883 -111.94063 2162 ft 86 kts 268°
2026-05-04 21:22 33.42880 -111.94813 2108 ft 95 kts 267°
2026-05-04 21:22 33.42910 -111.95598 1961 ft 91 kts 272°
2026-05-04 21:22 33.42893 -111.96329 1801 ft 85 kts 269°
2026-05-04 21:22 33.42876 -111.97037 1667 ft 88 kts 277°
2026-05-04 21:23 33.42890 -111.97754 1581 ft 90 kts 271°
2026-05-04 21:23 33.42894 -111.98503 1466 ft 90 kts 272°
2026-05-04 21:23 33.42888 -111.99222 1314 ft 79 kts 270°
2026-05-04 21:23 33.42896 -111.99871 1211 ft 81 kts 269°
2026-05-04 21:24 33.42886 -112.00542 1133 ft 72 kts 270°
2026-05-04 21:24 33.42885 -112.01009 1125 ft 43 kts 269°
2026-05-04 21:24 33.42882 -112.01296 1125 ft 33 kts 269°
2026-05-04 21:24 33.42882 -112.01550 1124 ft 20 kts 266°
2026-05-04 21:25 33.42822 -112.01660 1125 ft 15 kts 178°
2026-05-04 21:25 33.42738 -112.01739 1125 ft 16 kts 189°
2026-05-04 21:25 33.42640 -112.01757 1125 ft 12 kts 243°